Time,TemperatureF,DewpointF,PressureIn,WindDirection,WindDirectionDegrees,WindSpeedMPH,WindSpeedGustMPH,Humidity,HourlyPrecipIn,Conditions,Clouds,dailyrainin,SoftwareType,DateUTC
2013-02-07 00:02:00,22.0,1.0,29.93,North,5,0.0,-999.0,40,-99.99,,,-99.99,,2013-02-07 05:02:00,
2013-02-07 00:12:00,22.0,1.0,29.93,North,5,0.0,-999.0,40,-99.99,,,-99.99,,2013-02-07 05:12:00,
2013-02-07 00:21:00,22.0,1.0,29.95,NNW,333,1.0,-999.0,40,-99.99,,,-99.99,,2013-02-07 05:21:00,
2013-02-07 00:32:00,22.0,2.0,29.93,WNW,300,1.0,-999.0,41,-99.99,,,-99.99,,2013-02-07 05:32:00,
2013-02-07 00:42:00,22.0,2.0,29.93,WNW,300,1.0,-999.0,41,-99.99,,,-99.99,,2013-02-07 05:42:00,
2013-02-07 00:52:00,22.0,2.0,29.93,WNW,300,1.0,-999.0,41,-99.99,,,-99.99,,2013-02-07 05:52:00,
2013-02-07 01:02:00,22.0,3.0,29.93,North,360,1.0,-999.0,43,-99.99,,,-99.99,,2013-02-07 06:02:00,
2013-02-07 01:11:00,22.0,3.0,29.93,North,360,1.0,-999.0,43,-99.99,,,-99.99,,2013-02-07 06:11:00,
2013-02-07 01:22:00,21.0,3.0,29.93,North,360,0.0,-999.0,44,-99.99,,,-99.99,,2013-02-07 06:22:00,
2013-02-07 01:32:00,21.0,4.0,29.93,East,81,1.0,-999.0,48,-99.99,,,-99.99,,2013-02-07 06:32:00,
2013-02-07 01:43:00,21.0,4.0,29.93,East,81,1.0,-999.0,48,-99.99,,,-99.99,,2013-02-07 06:43:00,
2013-02-07 01:52:00,20.0,4.0,29.94,NW,320,0.0,-999.0,50,-99.99,,,-99.99,,2013-02-07 06:52:00,
2013-02-07 02:01:00,20.0,5.0,29.95,NNW,334,0.0,-999.0,51,-99.99,,,-99.99,,2013-02-07 07:01:00,
2013-02-07 02:11:00,20.0,6.0,29.96,NNW,339,1.0,-999.0,53,-99.99,,,-99.99,,2013-02-07 07:11:00,
2013-02-07 02:22:00,20.0,6.0,29.96,NNW,339,1.0,-999.0,53,-99.99,,,-99.99,,2013-02-07 07:22:00,
2013-02-07 02:32:00,19.0,5.0,29.97,North,355,1.0,-999.0,53,-99.99,,,-99.99,,2013-02-07 07:32:00,
2013-02-07 02:42:00,19.0,5.0,29.97,North,355,1.0,-999.0,53,-99.99,,,-99.99,,2013-02-07 07:42:00,
2013-02-07 02:52:00,19.0,6.0,29.97,North,360,0.0,-999.0,55,-99.99,,,-99.99,,2013-02-07 07:52:00,
2013-02-07 03:01:00,18.0,6.0,29.98,North,11,0.0,-999.0,59,-99.99,,,-99.99,,2013-02-07 08:01:00,
2013-02-07 03:11:00,18.0,6.0,29.98,North,11,0.0,-999.0,59,-99.99,,,-99.99,,2013-02-07 08:11:00,
2013-02-07 03:22:00,18.0,6.0,29.98,North,11,0.0,-999.0,59,-99.99,,,-99.99,,2013-02-07 08:22:00,
2013-02-07 03:32:00,18.0,6.0,29.98,North,11,0.0,-999.0,59,-99.99,,,-99.99,,2013-02-07 08:32:00,
2013-02-07 03:42:00,18.0,6.0,29.98,North,11,0.0,-999.0,59,-99.99,,,-99.99,,2013-02-07 08:42:00,
2013-02-07 03:52:00,17.0,7.0,29.98,NE,42,0.0,-999.0,65,-99.99,,,-99.99,,2013-02-07 08:52:00,
2013-02-07 04:02:00,16.0,7.0,29.98,NE,42,0.0,-999.0,66,-99.99,,,-99.99,,2013-02-07 09:02:00,
2013-02-07 04:11:00,16.0,7.0,29.98,NE,42,0.0,-999.0,66,-99.99,,,-99.99,,2013-02-07 09:11:00,
2013-02-07 04:21:00,16.0,6.0,29.98,NE,42,0.0,-999.0,65,-99.99,,,-99.99,,2013-02-07 09:21:00,
2013-02-07 04:32:00,17.0,7.0,29.98,NNE,14,0.0,-999.0,65,-99.99,,,-99.99,,2013-02-07 09:32:00,
2013-02-07 04:42:00,17.0,7.0,29.98,NNE,14,0.0,-999.0,65,-99.99,,,-99.99,,2013-02-07 09:42:00,
2013-02-07 04:52:00,17.0,7.0,29.99,NNE,14,0.0,-999.0,64,-99.99,,,-99.99,,2013-02-07 09:52:00,
2013-02-07 05:02:00,16.0,8.0,29.99,NNE,14,0.0,-999.0,70,-99.99,,,-99.99,,2013-02-07 10:02:00,
2013-02-07 05:11:00,16.0,8.0,29.99,NNE,14,0.0,-999.0,70,-99.99,,,-99.99,,2013-02-07 10:11:00,
2013-02-07 05:22:00,15.0,8.0,30.01,NNE,14,0.0,-999.0,72,-99.99,,,-99.99,,2013-02-07 10:22:00,
2013-02-07 05:32:00,14.0,8.0,30.01,NNE,14,0.0,-999.0,75,-99.99,,,-99.99,,2013-02-07 10:32:00,
2013-02-07 05:42:00,14.0,8.0,30.01,NNE,14,0.0,-999.0,75,-99.99,,,-99.99,,2013-02-07 10:42:00,
2013-02-07 05:52:00,14.0,8.0,30.01,NNE,14,0.0,-999.0,76,-99.99,,,-99.99,,2013-02-07 10:52:00,
2013-02-07 06:01:00,13.0,8.0,30.01,NNE,14,0.0,-999.0,79,-99.99,,,-99.99,,2013-02-07 11:01:00,
2013-02-07 06:11:00,13.0,8.0,30.01,NNE,14,0.0,-999.0,79,-99.99,,,-99.99,,2013-02-07 11:11:00,
2013-02-07 06:23:00,13.0,8.0,30.01,NNE,14,0.0,-999.0,79,-99.99,,,-99.99,,2013-02-07 11:23:00,
2013-02-07 06:32:00,13.0,8.0,30.02,NNE,14,0.0,-999.0,79,-99.99,,,-99.99,,2013-02-07 11:32:00,
2013-02-07 06:44:00,13.0,8.0,30.02,NNE,14,0.0,-999.0,79,-99.99,,,-99.99,,2013-02-07 11:44:00,
2013-02-07 06:53:00,13.0,8.0,30.03,NNE,14,0.0,-999.0,80,-99.99,,,-99.99,,2013-02-07 11:53:00,
2013-02-07 07:02:00,13.0,8.0,30.04,NNE,14,0.0,-999.0,79,-99.99,,,-99.99,,2013-02-07 12:02:00,
2013-02-07 07:12:00,13.0,8.0,30.04,NNE,14,0.0,-999.0,79,-99.99,,,-99.99,,2013-02-07 12:12:00,
2013-02-07 07:22:00,14.0,9.0,30.05,NNE,14,0.0,-999.0,80,-99.99,,,-99.99,,2013-02-07 12:22:00,
2013-02-07 07:33:00,14.0,9.0,30.05,NNE,14,0.0,-999.0,80,-99.99,,,-99.99,,2013-02-07 12:33:00,
2013-02-07 07:42:00,14.0,9.0,30.05,NNE,14,0.0,-999.0,80,-99.99,,,-99.99,,2013-02-07 12:42:00,
2013-02-07 07:53:00,15.0,10.0,30.06,NNE,14,0.0,-999.0,80,-99.99,,,-99.99,,2013-02-07 12:53:00,
2013-02-07 08:03:00,15.0,10.0,30.07,NNE,14,0.0,-999.0,79,-99.99,,,-99.99,,2013-02-07 13:03:00,
2013-02-07 08:12:00,15.0,10.0,30.07,NNE,14,0.0,-999.0,79,-99.99,,,-99.99,,2013-02-07 13:12:00,
2013-02-07 08:22:00,16.0,9.0,30.08,NNE,14,0.0,-999.0,73,-99.99,,,-99.99,,2013-02-07 13:22:00,
2013-02-07 08:32:00,17.0,8.0,30.07,NNE,14,0.0,-999.0,67,-99.99,,,-99.99,,2013-02-07 13:32:00,
2013-02-07 08:42:00,17.0,8.0,30.07,NNE,14,0.0,-999.0,67,-99.99,,,-99.99,,2013-02-07 13:42:00,
2013-02-07 08:52:00,18.0,8.0,30.08,NNE,12,0.0,-999.0,64,-99.99,,,-99.99,,2013-02-07 13:52:00,
2013-02-07 09:01:00,19.0,7.0,30.09,NNW,332,1.0,-999.0,60,-99.99,,,-99.99,,2013-02-07 14:01:00,
2013-02-07 09:11:00,19.0,7.0,30.09,NNW,332,1.0,-999.0,60,-99.99,,,-99.99,,2013-02-07 14:11:00,
2013-02-07 09:22:00,19.0,7.0,30.09,North,350,0.0,-999.0,58,-99.99,,,-99.99,,2013-02-07 14:22:00,
2013-02-07 09:32:00,20.0,8.0,30.09,North,355,1.0,-999.0,58,-99.99,,,-99.99,,2013-02-07 14:32:00,
2013-02-07 09:42:00,20.0,8.0,30.09,North,355,1.0,-999.0,58,-99.99,,,-99.99,,2013-02-07 14:42:00,
2013-02-07 09:52:00,20.0,7.0,30.09,NNW,331,1.0,-999.0,57,-99.99,,,-99.99,,2013-02-07 14:52:00,
2013-02-07 10:02:00,21.0,7.0,30.09,East,93,1.0,-999.0,55,-99.99,,,-99.99,,2013-02-07 15:02:00,
2013-02-07 10:11:00,21.0,7.0,30.09,East,93,1.0,-999.0,55,-99.99,,,-99.99,,2013-02-07 15:11:00,
2013-02-07 10:22:00,22.0,7.0,30.09,NNW,330,1.0,-999.0,52,-99.99,,,-99.99,,2013-02-07 15:22:00,
2013-02-07 10:32:00,23.0,7.0,30.10,North,355,1.0,-999.0,50,-99.99,,,-99.99,,2013-02-07 15:32:00,
2013-02-07 10:42:00,23.0,7.0,30.10,North,355,1.0,-999.0,50,-99.99,,,-99.99,,2013-02-07 15:42:00,
2013-02-07 10:52:00,24.0,7.0,30.09,NNW,328,1.0,-999.0,48,-99.99,,,-99.99,,2013-02-07 15:52:00,
2013-02-07 11:01:00,24.0,6.0,30.10,NNW,334,2.0,-999.0,46,-99.99,,,-99.99,,2013-02-07 16:01:00,
2013-02-07 11:11:00,24.0,6.0,30.10,NNW,334,2.0,-999.0,46,-99.99,,,-99.99,,2013-02-07 16:11:00,
2013-02-07 11:22:00,24.0,7.0,30.09,NNW,347,1.0,-999.0,47,-99.99,,,-99.99,,2013-02-07 16:22:00,
2013-02-07 11:32:00,24.0,6.0,30.09,NW,309,2.0,-999.0,46,-99.99,,,-99.99,,2013-02-07 16:32:00,
2013-02-07 11:42:00,24.0,6.0,30.09,NW,309,2.0,-999.0,46,-99.99,,,-99.99,,2013-02-07 16:42:00,
2013-02-07 11:52:00,26.0,8.0,30.08,NW,322,2.0,-999.0,46,-99.99,,,-99.99,,2013-02-07 16:52:00,
2013-02-07 12:01:00,27.0,9.0,30.07,NNE,26,2.0,-999.0,46,-99.99,,,-99.99,,2013-02-07 17:01:00,
2013-02-07 12:11:00,27.0,9.0,30.07,NNE,26,2.0,-999.0,46,-99.99,,,-99.99,,2013-02-07 17:11:00,
2013-02-07 12:21:00,27.0,8.0,30.07,East,84,2.0,-999.0,43,-99.99,,,-99.99,,2013-02-07 17:21:00,
2013-02-07 12:32:00,27.0,8.0,30.06,NW,325,2.0,-999.0,44,-99.99,,,-99.99,,2013-02-07 17:32:00,
2013-02-07 12:43:00,27.0,8.0,30.06,NW,325,2.0,-999.0,44,-99.99,,,-99.99,,2013-02-07 17:43:00,
2013-02-07 12:52:00,28.0,8.0,30.06,NW,306,2.0,-999.0,43,-99.99,,,-99.99,,2013-02-07 17:52:00,
2013-02-07 13:02:00,29.0,8.0,30.05,NW,322,2.0,-999.0,41,-99.99,,,-99.99,,2013-02-07 18:02:00,
2013-02-07 13:11:00,29.0,8.0,30.05,NW,322,2.0,-999.0,41,-99.99,,,-99.99,,2013-02-07 18:11:00,
2013-02-07 13:23:00,30.0,9.0,30.04,West,267,2.0,-999.0,40,-99.99,,,-99.99,,2013-02-07 18:23:00,
2013-02-07 13:32:00,29.0,7.0,30.04,NNE,33,2.0,-999.0,39,-99.99,,,-99.99,,2013-02-07 18:32:00,
2013-02-07 13:42:00,29.0,7.0,30.04,NNE,33,2.0,-999.0,39,-99.99,,,-99.99,,2013-02-07 18:42:00,
2013-02-07 13:52:00,29.0,9.0,30.03,East,94,2.0,-999.0,42,-99.99,,,-99.99,,2013-02-07 18:52:00,
2013-02-07 14:01:00,30.0,10.0,30.03,NNW,334,2.0,-999.0,42,-99.99,,,-99.99,,2013-02-07 19:01:00,
2013-02-07 14:11:00,30.0,10.0,30.03,NNW,334,2.0,-999.0,42,-99.99,,,-99.99,,2013-02-07 19:11:00,
2013-02-07 14:22:00,30.0,9.0,30.02,NNW,332,1.0,-999.0,40,-99.99,,,-99.99,,2013-02-07 19:22:00,
2013-02-07 14:32:00,30.0,9.0,30.02,NNW,332,1.0,-999.0,40,-99.99,,,-99.99,,2013-02-07 19:32:00,
2013-02-07 14:42:00,30.0,9.0,30.02,NNW,332,1.0,-999.0,40,-99.99,,,-99.99,,2013-02-07 19:42:00,
2013-02-07 14:52:00,30.0,9.0,30.02,NNW,332,1.0,-999.0,40,-99.99,,,-99.99,,2013-02-07 19:52:00,
2013-02-07 15:01:00,31.0,8.0,30.01,NW,324,1.0,-999.0,38,-99.99,,,-99.99,,2013-02-07 20:01:00,
2013-02-07 15:11:00,31.0,8.0,30.01,NW,324,1.0,-999.0,38,-99.99,,,-99.99,,2013-02-07 20:11:00,
2013-02-07 15:22:00,31.0,8.0,30.01,ENE,78,2.0,-999.0,38,-99.99,,,-99.99,,2013-02-07 20:22:00,
2013-02-07 15:32:00,31.0,8.0,30.01,ENE,71,1.0,-999.0,38,-99.99,,,-99.99,,2013-02-07 20:32:00,
2013-02-07 15:42:00,31.0,8.0,30.01,ENE,71,1.0,-999.0,38,-99.99,,,-99.99,,2013-02-07 20:42:00,
2013-02-07 15:52:00,31.0,9.0,30.01,SSW,207,1.0,-999.0,39,-99.99,,,-99.99,,2013-02-07 20:52:00,
2013-02-07 16:02:00,31.0,10.0,29.99,WNW,290,1.0,-999.0,41,-99.99,,,-99.99,,2013-02-07 21:02:00,
2013-02-07 16:11:00,31.0,10.0,29.99,WNW,290,1.0,-999.0,41,-99.99,,,-99.99,,2013-02-07 21:11:00,
2013-02-07 16:22:00,31.0,9.0,29.99,South,184,1.0,-999.0,39,-99.99,,,-99.99,,2013-02-07 21:22:00,
2013-02-07 16:32:00,31.0,9.0,29.99,South,169,1.0,-999.0,39,-99.99,,,-99.99,,2013-02-07 21:32:00,
2013-02-07 16:42:00,31.0,9.0,29.99,South,169,1.0,-999.0,39,-99.99,,,-99.99,,2013-02-07 21:42:00,
2013-02-07 16:52:00,31.0,9.0,29.99,South,169,1.0,-999.0,39,-99.99,,,-99.99,,2013-02-07 21:52:00,
2013-02-07 17:02:00,30.0,9.0,29.99,SSW,208,1.0,-999.0,41,-99.99,,,-99.99,,2013-02-07 22:02:00,
2013-02-07 17:11:00,30.0,9.0,29.99,SSW,208,1.0,-999.0,41,-99.99,,,-99.99,,2013-02-07 22:11:00,
2013-02-07 17:22:00,30.0,10.0,29.98,SSW,209,1.0,-999.0,43,-99.99,,,-99.99,,2013-02-07 22:22:00,
2013-02-07 17:32:00,29.0,9.0,29.99,SSW,196,1.0,-999.0,43,-99.99,,,-99.99,,2013-02-07 22:32:00,
2013-02-07 17:42:00,29.0,9.0,29.99,SSW,196,1.0,-999.0,43,-99.99,,,-99.99,,2013-02-07 22:42:00,
2013-02-07 17:52:00,29.0,9.0,29.99,SW,221,0.0,-999.0,43,-99.99,,,-99.99,,2013-02-07 22:52:00,
2013-02-07 18:01:00,29.0,9.0,29.99,SW,220,0.0,-999.0,43,-99.99,,,-99.99,,2013-02-07 23:01:00,
2013-02-07 18:11:00,29.0,9.0,29.99,SW,220,0.0,-999.0,43,-99.99,,,-99.99,,2013-02-07 23:11:00,
2013-02-07 18:22:00,29.0,9.0,30.00,SW,217,0.0,-999.0,43,-99.99,,,-99.99,,2013-02-07 23:22:00,
2013-02-07 18:32:00,28.0,8.0,30.01,SW,229,0.0,-999.0,43,-99.99,,,-99.99,,2013-02-07 23:32:00,
2013-02-07 18:42:00,28.0,8.0,30.01,SW,229,0.0,-999.0,43,-99.99,,,-99.99,,2013-02-07 23:42:00,
2013-02-07 18:52:00,28.0,9.0,30.01,South,169,0.0,-999.0,44,-99.99,,,-99.99,,2013-02-07 23:52:00,
2013-02-07 19:02:00,28.0,9.0,30.00,SSE,158,0.0,-999.0,45,-99.99,,,-99.99,,2013-02-08 00:02:00,
2013-02-07 19:11:00,28.0,9.0,30.00,SSE,158,0.0,-999.0,45,-99.99,,,-99.99,,2013-02-08 00:11:00,
2013-02-07 19:22:00,26.0,11.0,30.00,SSE,158,0.0,-999.0,53,-99.99,,,-99.99,,2013-02-08 00:22:00,
2013-02-07 19:32:00,25.0,11.0,29.99,SSE,158,0.0,-999.0,55,-99.99,,,-99.99,,2013-02-08 00:32:00,
2013-02-07 19:42:00,25.0,11.0,29.99,SSE,158,0.0,-999.0,55,-99.99,,,-99.99,,2013-02-08 00:42:00,
2013-02-07 19:52:00,24.0,11.0,29.99,SSE,158,0.0,-999.0,56,-99.99,,,-99.99,,2013-02-08 00:52:00,
2013-02-07 20:01:00,23.0,9.0,30.00,SSE,158,0.0,-999.0,55,-99.99,,,-99.99,,2013-02-08 01:01:00,
2013-02-07 20:11:00,23.0,9.0,30.00,SSE,158,0.0,-999.0,55,-99.99,,,-99.99,,2013-02-08 01:11:00,
2013-02-07 20:21:00,23.0,11.0,30.00,SSE,158,0.0,-999.0,60,-99.99,,,-99.99,,2013-02-08 01:21:00,
2013-02-07 20:32:00,23.0,11.0,30.00,SSE,156,0.0,-999.0,60,-99.99,,,-99.99,,2013-02-08 01:32:00,
2013-02-07 20:42:00,23.0,11.0,30.00,SSE,156,0.0,-999.0,60,-99.99,,,-99.99,,2013-02-08 01:42:00,
2013-02-07 20:52:00,23.0,10.0,30.01,SSE,155,0.0,-999.0,56,-99.99,,,-99.99,,2013-02-08 01:52:00,
2013-02-07 21:01:00,23.0,10.0,30.01,SSE,155,0.0,-999.0,56,-99.99,,,-99.99,,2013-02-08 02:01:00,
2013-02-07 21:11:00,23.0,10.0,30.01,SSE,155,0.0,-999.0,56,-99.99,,,-99.99,,2013-02-08 02:11:00,
2013-02-07 21:21:00,23.0,11.0,30.01,SSE,155,0.0,-999.0,60,-99.99,,,-99.99,,2013-02-08 02:21:00,
2013-02-07 21:32:00,23.0,12.0,30.01,SSE,155,0.0,-999.0,61,-99.99,,,-99.99,,2013-02-08 02:32:00,
2013-02-07 21:42:00,23.0,12.0,30.01,SSE,155,0.0,-999.0,61,-99.99,,,-99.99,,2013-02-08 02:42:00,
2013-02-07 21:52:00,23.0,12.0,30.01,SSE,155,0.0,-999.0,62,-99.99,,,-99.99,,2013-02-08 02:52:00,
2013-02-07 22:02:00,23.0,12.0,30.00,SSE,155,0.0,-999.0,62,-99.99,,,-99.99,,2013-02-08 03:02:00,
2013-02-07 22:12:00,23.0,12.0,30.00,SSE,155,0.0,-999.0,62,-99.99,,,-99.99,,2013-02-08 03:12:00,
2013-02-07 22:22:00,23.0,12.0,29.99,SE,146,0.0,-999.0,63,-99.99,,,-99.99,,2013-02-08 03:22:00,
2013-02-07 22:32:00,23.0,11.0,29.98,SE,146,0.0,-999.0,60,-99.99,,,-99.99,,2013-02-08 03:32:00,
2013-02-07 22:42:00,23.0,11.0,29.98,SE,146,0.0,-999.0,60,-99.99,,,-99.99,,2013-02-08 03:42:00,
2013-02-07 22:52:00,24.0,11.0,29.98,ENE,57,0.0,-999.0,58,-99.99,,,-99.99,,2013-02-08 03:52:00,
2013-02-07 23:02:00,24.0,11.0,29.98,ENE,57,0.0,-999.0,58,-99.99,,,-99.99,,2013-02-08 04:02:00,
2013-02-07 23:11:00,24.0,11.0,29.98,ENE,57,0.0,-999.0,58,-99.99,,,-99.99,,2013-02-08 04:11:00,
2013-02-07 23:21:00,25.0,13.0,29.97,ESE,123,0.0,-999.0,60,-99.99,,,-99.99,,2013-02-08 04:21:00,
2013-02-07 23:32:00,25.0,13.0,29.96,ENE,76,1.0,-999.0,60,-99.99,,,-99.99,,2013-02-08 04:32:00,
2013-02-07 23:42:00,25.0,13.0,29.96,ENE,76,1.0,-999.0,60,-99.99,,,-99.99,,2013-02-08 04:42:00,
2013-02-07 23:52:00,26.0,14.0,29.96,East,79,0.0,-999.0,61,-99.99,,,-99.99,,2013-02-08 04:52:00,